TimeEDT,TemperatureF,Dew PointF,Humidity,Sea Level PressureIn,VisibilityMPH,Wind Direction,Wind SpeedMPH,Gust SpeedMPH,PrecipitationIn,Events,Conditions,WindDirDegrees,DateUTC
12:53 AM,44.1,32.0,63,29.70,10.0,NW,10.4,17.3,N/A,,Overcast,310,2012-11-03 04:53:00
1:53 AM,43.0,33.1,68,29.70,10.0,West,6.9,-,N/A,,Overcast,280,2012-11-03 05:53:00
2:53 AM,43.0,32.0,65,29.70,10.0,WNW,9.2,-,N/A,,Overcast,300,2012-11-03 06:53:00
3:53 AM,44.1,32.0,63,29.70,10.0,NW,12.7,-,N/A,,Overcast,310,2012-11-03 07:53:00
4:53 AM,43.0,30.9,62,29.71,10.0,WNW,8.1,-,N/A,,Overcast,300,2012-11-03 08:53:00
5:53 AM,42.1,30.0,62,29.73,10.0,NW,8.1,-,N/A,,Mostly Cloudy,310,2012-11-03 09:53:00
6:53 AM,42.1,30.0,62,29.75,10.0,NNW,5.8,-,N/A,,Mostly Cloudy,330,2012-11-03 10:53:00
7:53 AM,44.1,30.0,58,29.77,10.0,NW,11.5,-,N/A,,Overcast,320,2012-11-03 11:53:00
8:53 AM,45.0,30.0,56,29.79,10.0,NW,11.5,19.6,N/A,,Scattered Clouds,320,2012-11-03 12:53:00
9:53 AM,46.9,28.9,50,29.79,10.0,NW,15.0,25.3,N/A,,Partly Cloudy,320,2012-11-03 13:53:00
10:53 AM,48.9,28.0,44,29.80,10.0,NNW,15.0,28.8,N/A,,Overcast,330,2012-11-03 14:53:00
11:53 AM,50.0,28.9,44,29.79,10.0,NW,11.5,21.9,N/A,,Clear,320,2012-11-03 15:53:00
12:53 PM,51.1,28.0,41,29.77,10.0,NW,13.8,20.7,N/A,,Clear,310,2012-11-03 16:53:00
1:53 PM,51.1,28.9,43,29.78,10.0,WNW,18.4,26.5,N/A,,Clear,300,2012-11-03 17:53:00
2:53 PM,51.1,28.0,41,29.78,10.0,NW,18.4,24.2,N/A,,Clear,310,2012-11-03 18:53:00
3:53 PM,48.9,28.0,44,29.81,10.0,WNW,15.0,24.2,N/A,,Clear,300,2012-11-03 19:53:00
4:53 PM,48.0,28.0,46,29.82,10.0,NW,10.4,-,N/A,,Overcast,320,2012-11-03 20:53:00
5:53 PM,46.9,28.0,48,29.83,10.0,NNW,9.2,19.6,N/A,,Overcast,330,2012-11-03 21:53:00
6:53 PM,46.0,27.0,47,29.85,10.0,NNW,10.4,18.4,N/A,,Overcast,330,2012-11-03 22:53:00
7:53 PM,45.0,27.0,49,29.87,10.0,NNW,13.8,19.6,N/A,,Overcast,330,2012-11-03 23:53:00
8:53 PM,45.0,28.0,52,29.88,10.0,NNW,8.1,-,N/A,,Overcast,330,2012-11-04 00:53:00
9:53 PM,43.0,28.0,56,29.88,10.0,NNW,9.2,-,N/A,,Scattered Clouds,340,2012-11-04 01:53:00
10:53 PM,42.1,28.0,58,29.88,10.0,NW,6.9,-,N/A,,Clear,320,2012-11-04 02:53:00
11:53 PM,41.0,28.0,60,29.88,10.0,NW,5.8,-,N/A,,Clear,310,2012-11-04 03:53:00